Location: Albany
(35.0170°S, 117.8920°E)
Time: 02:06:04
(UTC+08:00)

Explorer 7 - Pass Details

Date: 27 January 2021
Orbit: 484 x 677 km, 50.3° (Epoch: 01 March)

Event Time Altitude Azimuth Distance (km) Brightness Sun altitude
Rises 13:18:20 0° 351° (N) 3,001 10.8 69.1°
Reaches altitude 10° 13:21:16 10° 9° (N) 2,107 10.1 68.7°
Maximum altitude 13:24:40 19° 53° (NE) 1,606 9.4 68.2°
Drops below altitude 10° 13:28:05 10° 97° (E) 2,121 9.7 67.7°
Sets 13:31:02 0° 114° (ESE) 3,028 10.4 67.3°
